Waarnemingen

Advertentie
Mijn weer
Figari, Frankrijk (7780): temperatuur & dauwpunt: 09.10.2019 21:00:00 - 15.10.2019 21:00:00 (CEST)Figari, Frankrijk (7780): temperatuur 5cm: 09.10.2019 21:00:00 - 15.10.2019 21:00:00 (CEST)Figari, Frankrijk (7780): windsnelheid & windstoten: 09.10.2019 21:00:00 - 15.10.2019 21:00:00 (CEST)Figari, Frankrijk (7780): windrichting: 09.10.2019 21:00:00 - 15.10.2019 21:00:00 (CEST)Figari, Frankrijk (7780): luchtdruk: 09.10.2019 21:00:00 - 15.10.2019 21:00:00 (CEST)Figari, Frankrijk (7780): zicht: 09.10.2019 21:00:00 - 15.10.2019 21:00:00 (CEST)Figari, Frankrijk (7780): neerslag: 09.10.2019 21:00:00 - 15.10.2019 21:00:00 (CEST)
Datum & Tijd tt [°C] td [°C] tt 5cm [°C] ff [km/u] ff [kn] fx [km/u] fx [kn] dd ppp [hPa] vv [km] rr [mm]
15.10.2019 21:00:00 18,6 12,6 15,6 29 16 54 29 W 1014,8 51 0,0
15.10.2019 20:00:00 18,7 13,1 16,4 29 16 55 30 W 1014,6 48 0,0
15.10.2019 19:00:00 19,5 13,9 17,8 32 18 53 29 W 1013,9 51 0,0
15.10.2019 18:00:00 21,9 13,0 20,2 34 18 59 32 W 1013,0 38 0,0
15.10.2019 17:00:00 22,5 15,3 23,3 20 11 52 28 W 1013,1 28 0,0
15.10.2019 16:00:00 24,5 16,7 27,1 32 18 64 35 W 1012,5 27 0,0
15.10.2019 15:00:00 26,3 19,4 32,8 39 21 58 31 ZW 1011,9 16 0,0
15.10.2019 14:00:00 26,7 19,1 32,7 38 20 54 29 ZW 1012,6 17 0,0
15.10.2019 13:00:00 27,4 18,1 29,4 24 13 42 23 ZW 1013,4 18 0,0
15.10.2019 12:00:00 25,4 15,4 29,5 15 8 28 15 ZW 1014,1 39 0,0
15.10.2019 11:00:00 26,7 16,3 28,6 5 3 20 11 OZO 1013,7 36 0,0
15.10.2019 10:00:00 24,3 18,2 24,0 11 6 24 13 NO 1013,8 19 0,0
15.10.2019 09:00:00 21,9 19,3 19,4 10 5 21 12 ONO 1014,1 14 0,0
15.10.2019 08:00:00 20,5 18,8 18,9 12 7 22 12 ONO 1013,4 13 0,0
15.10.2019 07:00:00 20,4 19,1 18,4 11 6 22 12 ONO 1013,8 11 0,0
15.10.2019 06:00:00 20,5 19,0 18,4 14 7 23 12 NO 1014,5 12 0,0
15.10.2019 05:00:00 20,7 19,2 18,1 12 7 20 11 ONO 1014,7 11 0,0
15.10.2019 04:00:00 20,6 19,3 18,2 11 6 24 13 NO 1015,5 9 0,0
15.10.2019 03:00:00 21,1 19,4 19,1 14 8 30 16 NO 1015,6 12 0,0
15.10.2019 02:00:00 21,6 19,5 20,3 15 8 37 20 ONO 1016,3 13 0,0
15.10.2019 01:00:00 21,8 19,4 20,5 20 11 36 20 NO 1016,5 14 0,0
15.10.2019 00:00:00 22,0 19,2 20,7 19 10 38 20 NO 1017,0 15 0,0
14.10.2019 23:00:00 22,2 19,2 20,4 23 12 40 21 NO 1017,0 15 0,0
14.10.2019 22:00:00 22,2 19,4 20,4 24 13 40 22 NO 1017,3 15 0,0
14.10.2019 21:00:00 22,1 19,5 20,6 22 12 41 22 ONO 1017,4 14 0,0
14.10.2019 20:00:00 22,2 19,7 20,7 23 12 40 21 ONO 1017,2 13 0,0
14.10.2019 19:00:00 22,6 19,8 21,5 23 12 40 21 ONO 1016,9 14 0,0
14.10.2019 18:00:00 23,6 19,7 23,9 20 11 42 23 ONO 1016,9 16 0,0
14.10.2019 17:00:00 25,1 19,2 26,5 21 11 40 21 ONO 1017,1 14 0,0
14.10.2019 16:00:00 26,0 19,2 31,4 17 9 33 18 ONO 1017,4 19 0,0
14.10.2019 15:00:00 26,9 19,0 33,4 19 11 37 20 O 1017,6 17 0,0
14.10.2019 14:00:00 26,7 18,8 33,5 18 10 33 18 O 1018,2 18 0,0
14.10.2019 13:00:00 27,1 19,2 37,1 16 9 38 21 O 1018,8 17 0,0
14.10.2019 12:00:00 27,5 19,6 35,3 17 9 34 18 O 1019,4 17 0,0
14.10.2019 11:00:00 25,8 19,7 28,7 16 8 32 18 O 1019,6 15 0,0
14.10.2019 10:00:00 24,3 20,2 22,3 16 9 29 16 ONO 1019,8 11 0,0
14.10.2019 09:00:00 22,3 20,2 19,9 14 8 26 14 NO 1019,8 11 0,0
14.10.2019 08:00:00 21,5 19,8 19,3 14 8 28 15 NO 1019,2 11 0,0
14.10.2019 07:00:00 21,3 19,6 19,1 14 7 25 14 ONO 1019,3 11 0,0
14.10.2019 06:00:00 21,6 19,5 19,7 11 6 28 15 ONO 1019,6 12 0,0
14.10.2019 05:00:00 21,5 19,4 19,1 14 7 28 15 ONO 1019,6 13 0,0
14.10.2019 04:00:00 21,3 19,2 18,7 15 8 31 17 ONO 1019,6 13 0,0
14.10.2019 03:00:00 21,0 18,9 18,5 18 10 28 15 NO 1019,9 13 0,0
14.10.2019 02:00:00 21,3 18,7 19,1 13 7 29 16 NO 1020,5 15 0,0
14.10.2019 01:00:00 21,8 18,8 19,9 14 8 30 16 ONO 1020,8 16 0,0
14.10.2019 00:00:00 21,6 19,0 19,5 17 9 33 18 ONO 1020,9 15 0,0
13.10.2019 23:00:00 21,4 18,8 19,4 18 10 33 18 NO 1021,0 16 0,0
13.10.2019 22:00:00 21,6 18,6 19,5 17 9 37 20 NO 1021,2 17 0,0
13.10.2019 21:00:00 21,6 17,8 19,5 17 9 32 18 ONO 1021,1 20 0,0
13.10.2019 20:00:00 21,3 17,7 19,5 16 9 35 19 ONO 1020,9 24 0,0
13.10.2019 19:00:00 21,5 17,9 20,0 18 10 35 19 ONO 1020,8 20 0,0
13.10.2019 18:00:00 22,7 17,6 23,2 19 11 37 20 NO 1020,5 20 0,0
13.10.2019 17:00:00 22,7 18,0 24,1 20 11 37 20 ONO 1020,5 20 0,0
13.10.2019 16:00:00 22,7 18,0 24,7 18 10 40 21 ONO 1020,9 35 0,0
13.10.2019 15:00:00 23,1 17,8 26,6 21 11 40 21 ONO 1021,3 33 0,0
13.10.2019 14:00:00 23,5 17,3 26,2 23 12 45 25 NO 1021,5 20 0,0
13.10.2019 13:00:00 23,4 16,7 26,1 25 13 44 24 NO 1022,2 47 0,0
13.10.2019 12:00:00 23,0 16,3 25,8 27 14 49 27 ONO 1022,0 33 0,0
13.10.2019 11:00:00 22,6 17,5 23,6 27 14 50 27 NO 1021,9 20 0,0
13.10.2019 10:00:00 21,8 18,2 20,3 25 14 44 24 NO 1022,0 26 0,0
13.10.2019 09:00:00 20,5 17,9 18,0 18 10 35 19 ONO 1022,1 20 0,0
13.10.2019 08:00:00 19,5 16,9 17,3 20 11 35 19 NO 1021,7 34 0,0
13.10.2019 07:00:00 19,2 16,6 16,8 20 11 35 19 ONO 1021,4 37 0,0
13.10.2019 06:00:00 19,0 16,4 16,4 16 9 29 16 ONO 1021,4 37 0,0
13.10.2019 05:00:00 18,7 16,7 15,4 15 8 24 13 ONO 1021,8 31 0,0
13.10.2019 04:00:00 18,5 16,5 15,6 11 6 26 14 ONO 1022,1 34 0,0
13.10.2019 03:00:00 18,3 15,5 15,6 11 6 22 12 ONO 1022,4 35 0,0
13.10.2019 02:00:00 18,6 17,1 16,2 13 7 29 16 ONO 1022,4 31 0,0
13.10.2019 01:00:00 19,0 17,1 16,6 16 9 26 14 ONO 1022,6 34 0,0
13.10.2019 00:00:00 19,0 17,1 17,0 13 7 29 16 ONO 1022,9 30 0,0
12.10.2019 23:00:00 19,3 17,3 17,0 15 8 26 14 ONO 1022,7 31 0,0
12.10.2019 22:00:00 19,6 17,6 17,3 12 6 25 14 ONO 1022,7 20 0,0
12.10.2019 21:00:00 20,1 17,7 18,4 18 10 30 16 ONO 1022,7 32 0,0
12.10.2019 20:00:00 20,1 17,7 18,7 17 9 26 14 ONO 1022,6 33 0,0
12.10.2019 19:00:00 20,8 17,6 19,8 14 7 27 14 ONO 1022,3 37 0,0
12.10.2019 18:00:00 21,7 16,9 21,4 12 7 25 13 ONO 1022,0 49 0,0
12.10.2019 17:00:00 23,6 16,6 24,8 13 7 27 14 O 1021,9 52 0,0
12.10.2019 16:00:00 24,0 16,3 27,6 12 7 26 14 ONO 1022,1 48 0,0
12.10.2019 15:00:00 26,7 15,1 34,1 9 5 26 14 OZO 1022,1 20 0,0
12.10.2019 14:00:00 26,7 14,5 37,1 7 4 31 17 O 1022,3 60 0,0
12.10.2019 13:00:00 25,3 14,1 35,8 8 4 24 13 NO 1022,9 60 0,0
12.10.2019 12:00:00 24,6 14,7 34,5 7 4 23 12 O 1023,4 52 0,0
12.10.2019 11:00:00 23,4 14,9 27,9 9 5 21 12 O 1023,4 44 0,0
12.10.2019 10:00:00 22,0 15,1 16,6 11 6 24 13 ONO 1023,1 42 0,0
12.10.2019 09:00:00 14,6 12,8 5,9 2 1 7 4 NNO 1022,8 39 0,0
12.10.2019 08:00:00 7,2 6,3 4,3 5 3 9 5 NO 1022,6 45 0,0
12.10.2019 07:00:00 6,1 5,4 4,3 3 1 8 4 NO 1022,7 45 0,0
12.10.2019 06:00:00 7,1 6,5 4,5 6 4 9 5 NNO 1022,7 30 0,0
12.10.2019 05:00:00 7,6 7,2 4,8 6 4 9 5 NO 1022,6 26 0,0
12.10.2019 04:00:00 7,3 6,4 4,9 5 3 8 5 NO 1022,8 35 0,0
12.10.2019 03:00:00 8,0 7,2 5,1 6 4 9 5 NO 1022,9 25 0,0
12.10.2019 02:00:00 8,1 7,0 5,5 3 2 9 5 NNO 1023,1 18 0,0
12.10.2019 01:00:00 9,0 7,9 5,8 8 5 10 5 NO 1023,2 21 0,0
12.10.2019 00:00:00 9,1 7,9 6,3 6 3 8 5 ONO 1023,5 32 0,0
11.10.2019 23:00:00 10,6 9,0 7,0 7 4 9 5 NNO 1023,3 44 0,0
11.10.2019 22:00:00 11,5 9,6 8,1 5 3 8 4 NO 1023,0 48 0,0
11.10.2019 21:00:00 12,8 10,3 9,2 6 3 9 5 NO 1022,6 55 0,0
11.10.2019 20:00:00 15,3 11,9 10,6 3 2 9 5 N 1022,3 57 0,0
11.10.2019 19:00:00 18,6 12,8 14,3 5 3 16 8 ZZW 1021,9 18 0,0
11.10.2019 18:00:00 21,9 13,8 20,3 11 6 21 11 ZZW 1021,8 49 0,0
11.10.2019 17:00:00 23,4 13,8 23,9 13 7 24 13 ZW 1021,9 37 0,0
11.10.2019 16:00:00 24,2 13,4 31,1 13 7 26 14 ZZW 1021,8 20 0,0
11.10.2019 15:00:00 24,7 13,6 34,7 14 8 27 15 ZZW 1022,2 46 0,0
11.10.2019 14:00:00 24,8 14,3 37,7 15 8 27 15 ZW 1022,7 19 0,0
11.10.2019 13:00:00 24,1 14,2 31,4 16 9 29 15 WZW 1023,0 21 0,0
11.10.2019 12:00:00 23,1 14,4 27,8 16 9 25 14 ZZW 1023,0 20 0,0
11.10.2019 11:00:00 22,4 13,5 23,6 9 5 17 9 ZZW 1023,0 40 0,0
11.10.2019 10:00:00 23,0 13,7 19,1 5 3 10 5 ZW 1022,8 34 0,0
11.10.2019 09:00:00 17,3 11,3 10,3 2 1 9 5 NO 1022,3 43 0,0
11.10.2019 08:00:00 10,3 9,1 6,8 5 3 12 7 NO 1021,6 58 0,0
11.10.2019 07:00:00 10,3 8,2 7,2 5 3 12 7 NO 1021,2 45 0,0
11.10.2019 06:00:00 11,3 9,9 6,6 5 3 14 8 NNO 1021,1 20 0,0
11.10.2019 05:00:00 9,8 8,2 6,6 10 5 15 8 ZW 1020,8 26 0,0
11.10.2019 04:00:00 10,3 8,2 7,4 4 2 10 6 ZZW 1020,7 20 0,0
11.10.2019 03:00:00 12,6 9,8 8,8 5 3 10 5 Z 1020,9 20 0,0
11.10.2019 02:00:00 16,0 11,4 10,8 10 5 21 11 W 1020,9 27 0,0
11.10.2019 01:00:00 17,3 10,9 12,6 12 7 35 19 WZW 1020,4 29 0,0
11.10.2019 00:00:00 18,2 10,3 11,1 22 12 34 18 WZW 1019,9 30 0,0
10.10.2019 23:00:00 15,0 11,0 10,6 16 9 35 19 W 1019,8 43 0,0
10.10.2019 22:00:00 18,0 11,1 13,2 22 12 45 24 W 1019,4 38 0,0
10.10.2019 21:00:00 18,0 11,3 14,5 22 12 38 20 WZW 1018,9 41 0,0
10.10.2019 20:00:00 18,3 11,1 15,6 30 16 50 27 WZW 1018,0 44 0,0
10.10.2019 19:00:00 19,3 10,0 16,4 26 14 55 30 WZW 1017,4 49 0,0
10.10.2019 18:00:00 21,3 9,5 19,6 32 17 56 30 W 1016,5 38 0,0
10.10.2019 17:00:00 22,4 9,9 22,5 36 20 57 31 W 1016,6 30 0,0
10.10.2019 16:00:00 23,9 8,3 30,4 34 18 61 33 W 1016,9 33 0,0
10.10.2019 15:00:00 24,3 8,7 33,3 35 19 59 32 W 1016,9 34 0,0
10.10.2019 14:00:00 24,1 8,9 36,6 35 19 59 32 W 1017,2 20 0,0
10.10.2019 13:00:00 24,3 8,3 39,5 34 18 62 33 W 1017,7 44 0,0
10.10.2019 12:00:00 24,3 10,6 36,7 31 17 59 32 W 1017,9 44 0,0
10.10.2019 11:00:00 23,1 11,2 29,9 35 19 71 38 W 1017,8 38 0,0
10.10.2019 10:00:00 22,0 9,2 23,6 37 20 63 34 W 1017,2 56 0,0
10.10.2019 09:00:00 20,8 11,4 17,0 33 18 55 30 W 1016,4 54 0,0
10.10.2019 08:00:00 20,1 11,0 15,5 27 15 60 33 WNW 1015,9 55 0,0
10.10.2019 07:00:00 19,9 10,3 15,5 26 14 63 34 W 1015,8 60 0,0
10.10.2019 06:00:00 19,6 13,8 16,0 29 16 49 27 W 1016,1 60 0,0
10.10.2019 05:00:00 19,8 14,4 15,5 26 14 46 25 W 1016,3 60 0,0
10.10.2019 04:00:00 19,5 15,2 15,6 21 12 35 19 WZW 1016,7 60 0,0
10.10.2019 03:00:00 20,0 15,4 15,8 19 11 33 18 W 1016,9 51 0,0
10.10.2019 02:00:00 19,9 15,7 16,3 16 9 48 26 WZW 1017,2 49 0,0
10.10.2019 01:00:00 20,1 16,9 17,8 22 12 42 23 WZW 1016,9 36 0,0
10.10.2019 00:00:00 21,1 17,3 19,1 20 11 40 22 WZW 1016,9 42 0,0
09.10.2019 23:00:00 21,2 17,4 19,2 22 12 40 22 W 1017,1 41 0,0
09.10.2019 22:00:00 21,3 17,1 18,0 20 11 37 20 WZW 1017,1 45 0,0
09.10.2019 21:00:00 21,1 16,1 18,2 17 9 45 24 W 1017,4 47 0,0

tt = temperatuur
td = dauwpunt
tt 5cm = temperatuur 5cm
ff = windsnelheid
fx = windstoten
dd = windrichting
ppp = luchtdruk
vv = zicht
rr = neerslag

Weerstations in de omgeving